Location: Starry Hill Observatory
(46.8582°N, 122.3590°W)
Time: 11:00:39
(UTC-07:00)

ISS - Visible Passes

Search period start: 28 May 2015 00:00
Search period end: 07 June 2015 00:00
Orbit: 399 x 404 km, 51.6° (Epoch: 28 May)

Date Brightness Start Highest point End Pass type
(mag) Time Alt. Az. Time Alt. Az. Time Alt. Az.
28 May -2.4 01:39:57 39° NW 01:40:39 47° NNW 01:43:50 10° ENE visible
28 May -1.6 03:14:29 10° WNW 03:17:30 34° N 03:20:32 10° ENE visible
29 May -2.8 00:47:47 56° NNE 00:47:47 56° NNE 00:50:36 10° ENE visible
29 May -1.6 02:21:06 10° WNW 02:24:06 33° N 02:27:08 10° ENE visible
29 May -2.4 03:57:44 10° WNW 04:00:56 51° NNE 04:04:08 10° E visible
29 May -2.7 23:54:57 45° ENE 23:54:57 45° ENE 23:57:21 10° ENE visible
30 May -1.8 01:27:39 10° WNW 01:30:43 36° N 01:33:47 10° ENE visible
30 May -1.9 03:04:28 10° WNW 03:07:35 40° NNE 03:10:41 10° E visible
30 May -3.3 04:40:53 10° WNW 04:44:07 61° SSW 04:47:21 10° SE visible
30 May -3.2 22:57:44 10° SW 23:00:52 47° SSE 23:04:01 10° ENE visible
31 May -2.2 00:34:11 10° W 00:37:19 44° NNW 00:40:28 10° ENE visible
31 May -1.6 02:11:09 10° WNW 02:14:11 35° N 02:17:14 10° ENE visible
31 May -3.3 03:47:36 10° WNW 03:50:53 83° NNE 03:54:09 10° ESE visible
31 May -2.4 22:04:55 10° SSW 22:07:43 27° SE 22:10:33 10° E visible
31 May -2.8 23:40:45 10° WSW 23:43:58 60° NNW 23:47:12 10° ENE visible
01 Jun -1.5 01:17:45 10° WNW 01:20:45 33° N 01:23:47 10° ENE visible
01 Jun -2.6 02:54:20 10° WNW 02:57:34 56° NNE 03:00:47 10° E visible
01 Jun -2.5 04:30:56 10° WNW 04:33:52 31° SW 04:36:47 10° SSE visible
01 Jun -3.4 22:47:24 10° WSW 22:50:39 90° SSE 22:53:56 10° ENE visible
02 Jun -1.7 00:24:17 10° WNW 00:27:19 35° N 00:30:23 10° ENE visible
02 Jun -2.0 02:01:04 10° WNW 02:04:11 42° NNE 02:07:19 10° E visible
02 Jun -3.3 03:37:29 10° WNW 03:40:41 53° SSW 03:43:52 10° SE visible
02 Jun -3.3 21:54:14 10° SW 21:57:24 54° SSE 22:00:36 10° ENE visible
02 Jun -2.0 23:30:47 10° W 23:33:54 41° NNW 23:37:01 10° ENE visible
03 Jun -1.7 01:07:43 10° WNW 01:10:46 35° N 01:13:49 10° ENE visible
03 Jun -3.5 02:44:09 10° WNW 02:47:26 88° SSW 02:50:41 10° ESE visible
03 Jun -1.7 04:21:22 10° W 04:23:28 16° SW 04:25:30 10° S visible
03 Jun -2.6 22:37:18 10° W 22:40:31 55° NNW 22:43:43 10° ENE visible
04 Jun -1.5 00:14:18 10° WNW 00:17:18 33° N 00:20:20 10° ENE visible
04 Jun -2.9 01:50:51 10° WNW 01:54:05 61° NNE 01:57:19 10° ESE visible
04 Jun -2.2 03:27:30 10° W 03:29:42 25° WSW 03:29:42 25° WSW visible
04 Jun -3.2 21:43:54 10° WSW 21:47:08 82° NNW 21:50:25 10° ENE visible
04 Jun -1.6 23:20:49 10° WNW 23:23:50 34° N 23:26:53 10° ENE visible
05 Jun -2.2 00:57:33 10° WNW 01:00:42 44° NNE 01:02:58 17° E visible
05 Jun -1.7 02:33:59 10° WNW 02:35:26 23° W 02:35:26 23° W visible
05 Jun -1.9 22:27:18 10° W 22:30:23 39° NNW 22:33:29 10° ENE visible
06 Jun -1.8 00:04:11 10° WNW 00:07:14 36° N 00:10:19 10° ENE visible
06 Jun -2.6 01:40:36 10° WNW 01:42:56 43° WNW 01:42:56 43° WNW visible
06 Jun -2.3 21:33:46 10° W 21:36:57 51° NNW 21:40:08 10° ENE visible
06 Jun -1.6 23:10:46 10° WNW 23:13:46 33° N 23:16:47 10° ENE visible
